Simultaneous Nadir Overpasses (SNOs) Predictions

Prediction of SNOs between GOES-14 and NOAA-20 Satellite Orbit:

Table of predicted SNOs for the next 14.0 days since TLE Epoch: 7/2/2022
Index Date Time (GOES-14) GOES-14 Lat,Lon NOAA-20 Lat,Lon Distance(km) Time Diff (sec)
1 07/02/2022 08:14:26 -0.17,-104.54 -0.71,-102.08 280.00 80
2 07/03/2022 20:33:44 0.20,-104.82 -0.38,-107.40 294.14 80
3 07/04/2022 20:17:38 0.18,-104.82 0.62,-102.87 222.31 80
4 07/06/2022 08:36:44 -0.22,-104.52 0.58,-108.13 411.60 80
5 07/07/2022 08:20:39 -0.20,-104.51 -0.42,-103.59 104.68 80
6 07/08/2022 20:39:55 0.24,-104.79 -0.71,-108.91 469.79 80
7 07/09/2022 20:23:50 0.23,-104.79 0.29,-104.37 46.47 80
8 07/12/2022 08:24:11 -0.25,-104.47 -0.09,-105.10 72.29 80
9 07/13/2022 08:08:05 -0.24,-104.46 -1.09,-100.56 443.34 80
10 07/14/2022 20:27:22 0.27,-104.73 0.03,-105.89 131.94 80
11 07/15/2022 20:11:17 0.25,-104.72 1.04,-101.36 384.25 80
